Location: Menands
(42.6920°N, 73.7246°W)
Time: 20:41:43
(UTC+00:00)

Cosmos 1072 Rocket - Pass Details

Date: 18 February 2026
Orbit: 947 x 1008 km, 82.9° (Epoch: 8 March)

Event Time Altitude Azimuth Distance (km) Brightness Sun altitude
Rises 23:22:46 0° 353° (N) 3,670 7.5 -10.2°
Reaches altitude 10° 23:25:18 10° 354° (N) 2,711 6.8 -10.7°
Maximum altitude 23:31:30 82° 83° (E) 970 4.4 -11.8°
Drops below altitude 10° 23:37:36 10° 170° (S) 2,664 6.7 -12.9°
Sets 23:40:04 0° 172° (S) 3,602 7.4 -13.4°
